This is the latest recevied weather packets stored in our database for station/object vk4zu-13. If no packets are shown the sender has not sent any weather packets the latest 10 day(s).
| Time | Temp. | Humidity | Pressure | Rain* | Wind** | Luminosity | Snow |
|---|---|---|---|---|---|---|---|
| 1778295331 | 24.44° C | 49% | 1021.9 hPa | 0 mm | - | 694 W/m² | - |
| 1778295269 | 23.89° C | 48% | 1021.9 hPa | 0 mm | - | 777 W/m² | - |
| 1778295200 | 23.89° C | 49% | 1021.9 hPa | 0 mm | - | 719 W/m² | - |
| 1778295142 | 23.33° C | 47% | 1022 hPa | 0 mm | - | 766 W/m² | - |
| 1778295079 | 23.89° C | 47% | 1022 hPa | 0 mm | - | 775 W/m² | - |
| 1778295012 | 23.33° C | 48% | 1022 hPa | 0 mm | - | 775 W/m² | - |
| 1778294950 | 23.33° C | 48% | 1022.1 hPa | 0 mm | - | 759 W/m² | - |
| 1778294892 | 23.33° C | 50% | 1022 hPa | 0 mm | - | 193 W/m² | - |
| 1778294830 | 22.78° C | 51% | 1022.1 hPa | 0 mm | - | 193 W/m² | - |
| 1778294752 | 22.78° C | 50% | 1022.1 hPa | 0 mm | - | 190 W/m² | - |
| 1778294688 | 22.78° C | 51% | 1022.1 hPa | 0 mm | - | 186 W/m² | - |
| 1778294627 | 22.78° C | 51% | 1022.2 hPa | 0 mm | - | 174 W/m² | - |
| 1778294567 | 22.78° C | 51% | 1022.1 hPa | 0 mm | - | 162 W/m² | - |
| 1778294506 | 22.78° C | 50% | 1022.1 hPa | 0 mm | - | 163 W/m² | - |
| 1778294428 | 22.78° C | 50% | 1022.1 hPa | 0 mm | - | 167 W/m² | - |
| 1778294369 | 22.78° C | 51% | 1022.1 hPa | 0 mm | - | 174 W/m² | - |
| 1778294311 | 23.33° C | 51% | 1022.1 hPa | 0 mm | - | 181 W/m² | - |
| 1778294241 | 23.33° C | 53% | 1022.2 hPa | 0 mm | - | 188 W/m² | - |
| 1778294176 | 22.78° C | 52% | 1022.2 hPa | 0 mm | - | 192 W/m² | - |
| 1778294118 | 23.33° C | 50% | 1022.1 hPa | 0 mm | - | 200 W/m² | - |
| 1778294054 | 23.33° C | 49% | 1022.1 hPa | 0 mm | - | 204 W/m² | - |
| 1778293993 | 23.89° C | 49% | 1022.2 hPa | 0 mm | - | 206 W/m² | - |
| 1778293933 | 23.89° C | 49% | 1022.2 hPa | 0 mm | - | 199 W/m² | - |
| 1778293862 | 23.89° C | 48% | 1022.2 hPa | 0 mm | - | 250 W/m² | - |
| 1778293793 | 23.89° C | 49% | 1022.2 hPa | 0 mm | - | 250 W/m² | - |
* Rain latest hour (hover to see other rain measurements)
** Current wind speed in m/s (hover to see current wind gust speed)